[[{"header":{"parameterUnit":"m.s-1","parameterCategory":2,"la1":30.2991,"la2":30.254,"lo1":-89.0895,"lo2":-89.0444,"dy":0.0017,"dx":0.0017,"nx":28,"ny":28,"refTime":"2024-03-17T03:00:00:Z","depth":"0","parameterNumber":2,"parameterNumberName":"U-component_of_CURRENTS"},"data":[0,0,0,0,0,0,0,0,0,0,0,0,0,0,0,0,0,0,0,0,0,0,0,0,0,0,0,0,0,0,0,0,0,0,0,0,0,0,0,0,0,0,0,0,0,0,0,0,0,0,0,0,0,0,0,0,0,0,-0.251,-0.251,0,-0.2537,-0.2537,-0.2537,-0.2504,-0.2503,-0.2502,-0.2501,-0.248,-0.2481,-0.2481,0,0,0,0,0,0,0,0,0,0,0,0,0,-0.2439,-0.2441,-0.251,-0.251,-0.2511,-0.2537,-0.2537,-0.2537,-0.2504,-0.2503,-0.2502,-0.2501,-0.248,-0.2481,-0.2481,0,0,0,0,0,0,0,0,0,0,0,0,0,-0.2466,-0.2441,-0.251,-0.25,-0.2499,-0.2536,-0.2537,-0.2537,-0.2504,-0.2503,-0.2502,-0.25,-0.248,-0.2481,-0.2481,-0.2513,0,0,-0.2483,-0.2483,0,0,0,0,0,0,0,0,-0.2464,-0.2468,-0.2501,-0.2501,-0.25,-0.2518,-0.2504,-0.2527,-0.2505,-0.25,-0.2501,-0.25,-0.2491,-0.2491,-0.2496,-0.2512,-0.2511,-0.2483,-0.2483,-0.2483,-0.2483,0,0,0,0,0,0,0,-0.2463,-0.2467,-0.2518,-0.2501,-0.2501,-0.2497,-0.2499,-0.2509,-0.25,-0.25,-0.2498,-0.2506,-0.249,-0.2495,-0.2495,-0.2511,-0.2483,-0.2483,-0.2483,-0.2484,-0.2537,-0.2538,0,0,0,0,0,0,-0.2466,-0.2465,-0.2517,-0.2519,-0.2481,-0.25,-0.2502,-0.2511,-0.2501,-0.2499,-0.2507,-0.2505,-0.2495,-0.2494,-0.2494,-0.2523,-0.2483,-0.2484,-0.2484,-0.2536,-0.2537,-0.2539,0,0,0,0,0,0,-0.2465,-0.2471,-0.2516,-0.2494,-0.25,-0.2503,-0.2514,-0.2513,-0.2512,-0.2508,-0.2504,-0.2507,-0.2494,-0.2493,-0.25,-0.2521,-0.2484,-0.2484,-0.2535,-0.2536,-0.2538,-0.2585,0,0,0,0,0,0,-0.2463,-0.247,-0.2472,-0.2495,-0.2502,-0.2538,-0.2516,-0.2514,-0.2521,-0.2517,-0.2507,-0.2503,-0.2493,-0.2499,-0.25,-0.2522,-0.2485,-0.2533,-0.2535,-0.2537,-0.2582,-0.2588,-0.2593,0,0,0,0,0,-0.246,-0.2472,-0.2472,-0.2478,-0.2506,-0.2539,-0.2542,-0.2536,-0.2522,-0.2528,-0.2519,-0.2503,-0.2513,-0.2501,-0.2502,-0.2523,-0.2532,-0.2535,-0.2537,-0.2579,-0.2587,-0.2593,0,0,0,0,0,0,-0.2441,-0.2471,-0.2471,-0.249,-0.2513,-0.2534,-0.2538,-0.254,-0.254,-0.2529,-0.2518,-0.2515,-0.2531,-0.2523,-0.2509,-0.2546,-0.2521,-0.2524,-0.2553,-0.256,-0.2565,-0.2562,-0.2485,0,0,0,0,0,-0.244,-0.2453,-0.2486,-0.2498,-0.251,-0.2524,-0.2534,-0.2537,-0.2545,-0.2542,-0.2538,-0.2535,-0.2546,-0.2546,-0.2552,-0.2573,-0.2557,-0.2588,-0.2593,-0.2598,-0.2597,-0.26,-0.2606,-0.2547,-0.2547,-0.2547,0,0,-0.2434,-0.2453,-0.2458,-0.2494,-0.2506,-0.2537,-0.2525,-0.2544,-0.2567,-0.2542,-0.2558,-0.2555,-0.2556,-0.2578,-0.2584,-0.2571,-0.2607,-0.2601,-0.2605,-0.2602,-0.2603,-0.2609,-0.2614,-0.2549,-0.2548,-0.2548,0,0,-0.2437,-0.2448,-0.2463,-0.2491,-0.252,-0.2537,-0.2545,-0.2572,-0.2576,-0.26,-0.2589,-0.2599,-0.2611,-0.2619,-0.2625,-0.2667,-0.2637,-0.2667,-0.2693,-0.2696,-0.27,-0.2704,-0.2688,-0.269,-0.2669,-0.2669,-0.2669,0,-0.2426,-0.2453,-0.2472,-0.2504,-0.2525,-0.2541,-0.257,-0.2591,-0.2614,-0.2622,-0.2608,-0.2635,-0.2635,-0.2668,-0.268,-0.2681,-0.2665,-0.2666,-0.2702,-0.2706,-0.2709,-0.2692,-0.2693,-0.2671,-0.2671,-0.2671,-0.2671,0,-0.2448,-0.2473,-0.2486,-0.253,-0.2559,-0.2584,-0.2625,-0.2644,-0.265,-0.2667,-0.2693,-0.2696,-0.2706,-0.2718,-0.2711,-0.274,-0.2716,-0.271,-0.2683,-0.2718,-0.2697,-0.2698,-0.2675,-0.2674,-0.2673,-0.2673,0,0,-0.2408,-0.2485,-0.2487,-0.2512,-0.2572,-0.2597,-0.2645,-0.2688,-0.2712,-0.273,-0.2755,-0.278,-0.277,-0.2775,-0.2772,-0.2778,-0.279,-0.2751,-0.275,-0.2731,-0.2777,-0.269,-0.2682,-0.2784,-0.2785,-0.2785,-0.2752,0,-0.241,-0.2467,-0.251,-0.256,-0.2589,-0.2634,-0.2679,-0.2722,-0.2749,-0.278,-0.2791,-0.2811,-0.2797,-0.2798,-0.2806,-0.2796,-0.2794,-0.2798,-0.275,-0.2748,-0.2664,-0.2682,-0.256,-0.2515,-0.2753,-0.2753,-0.2753,0,-0.2409,-0.2447,-0.2494,-0.2572,-0.2589,-0.2623,-0.2685,-0.273,-0.2788,-0.2809,-0.2833,-0.2841,-0.286,-0.2838,-0.2833,-0.2832,-0.2805,-0.2794,-0.2792,-0.2693,-0.2663,-0.252,-0.2507,-0.2469,-0.2754,-0.2754,-0.2754,0,-0.2352,-0.2434,-0.2464,-0.2491,-0.2582,-0.2605,-0.265,-0.2721,-0.2762,-0.2817,-0.2842,-0.2867,-0.287,-0.2857,-0.283,-0.283,-0.2811,-0.2809,-0.2706,-0.2699,-0.2577,-0.2558,-0.2515,-0.2799,-0.2799,-0.2799,-0.2799,0,-0.233,-0.2355,-0.2435,-0.245,-0.2492,-0.2565,-0.2612,-0.2669,-0.2742,-0.2774,-0.2836,-0.2853,-0.2873,-0.2867,-0.2839,-0.2765,-0.2814,-0.2706,-0.2686,-0.2589,-0.2572,-0.2517,-0.2532,-0.2798,-0.2798,-0.2798,-0.2799,0,-0.226,-0.2314,-0.2357,-0.244,-0.2465,-0.249,-0.2589,-0.2612,-0.2701,-0.2744,-0.2759,-0.2839,-0.2823,-0.283,-0.2808,-0.2759,-0.2648,-0.2672,-0.2546,-0.2511,-0.2365,-0.2387,-0.2316,-0.2245,-0.255,-0.2548,-0.2546,0,-0.2229,-0.2237,-0.2326,-0.2335,-0.2366,-0.2419,-0.2443,-0.2563,-0.2598,-0.2715,-0.2718,-0.2754,-0.2745,-0.2699,-0.2627,-0.2556,-0.255,-0.2403,-0.2384,-0.2333,-0.2345,-0.236,-0.2307,-0.2243,-0.2239,-0.2235,-0.2232,0,-0.2148,-0.2177,-0.2199,-0.2234,-0.2256,-0.2307,-0.236,-0.2392,-0.2509,-0.2561,-0.2607,-0.2619,-0.2594,-0.2474,-0.2398,-0.2345,-0.232,-0.2327,-0.2312,-0.2127,-0.2103,-0.2031,-0.2289,-0.2201,-0.2204,-0.2206,-0.2208,-0.2209,-0.2061,-0.2062,-0.2082,-0.2103,-0.2134,-0.2152,-0.214,-0.2212,-0.2258,-0.2294,-0.2401,-0.2385,-0.2327,-0.2205,-0.2145,-0.2004,-0.2084,-0.194,-0.1979,-0.2005,-0.1909,-0.2086,-0.1954,-0.1956,-0.1957,-0.1958,-0.1959,0,-0.1938,-0.1939,-0.1945,-0.196,-0.1929,-0.2004,-0.2036,-0.1998,-0.1988,-0.2077,-0.2094,-0.208,-0.194,-0.1914,-0.1784,-0.1684,-0.165,-0.1654,-0.1656,-0.1624,-0.1797,-0.1754,-0.1526,-0.1526,-0.1526,-0.1526,-0.1526,-0.1526,-0.1863,-0.1816,-0.1827,-0.1736,-0.1737,-0.1657,-0.164,-0.1623,-0.1664,-0.1666,-0.1719,-0.1795,-0.1788,-0.1789,-0.1621,-0.1531,-0.1488,-0.1432,-0.1473,-0.1613,-0.1644,-0.1673,-0.1635,-0.1386,-0.1386,-0.122,-0.1219,-0.1218]},{"header":{"parameterUnit":"m.s-1","parameterCategory":2,"la1":30.2991,"la2":30.254,"lo1":-89.0895,"lo2":-89.0444,"dy":0.0017,"dx":0.0017,"nx":28,"ny":28,"refTime":"2024-03-17T03:00:00:Z","depth":"0","parameterNumber":3,"parameterNumberName":"V-component_of_CURRENTS"},"data":[0,0,0,0,0,0,0,0,0,0,0,0,0,0,0,0,0,0,0,0,0,0,0,0,0,0,0,0,0,0,0,0,0,0,0,0,0,0,0,0,0,0,0,0,0,0,0,0,0,0,0,0,0,0,0,0,0,0,-0.039,-0.0389,0,-0.0316,-0.0315,-0.0315,-0.0264,-0.0264,-0.0264,-0.0263,-0.0169,-0.0167,-0.0164,0,0,0,0,0,0,0,0,0,0,0,0,0,-0.0451,-0.045,-0.039,-0.0389,-0.0388,-0.0316,-0.0315,-0.0314,-0.0265,-0.0264,-0.0264,-0.0263,-0.0169,-0.0167,-0.0164,0,0,0,0,0,0,0,0,0,0,0,0,0,-0.0406,-0.045,-0.039,-0.0354,-0.0351,-0.0317,-0.0315,-0.0314,-0.0265,-0.0264,-0.0264,-0.0263,-0.017,-0.0167,-0.0164,-0.0155,0,0,-0.0154,-0.0152,0,0,0,0,0,0,0,0,-0.0408,-0.0404,-0.0361,-0.0357,-0.0352,-0.0299,-0.0302,-0.026,-0.0265,-0.0297,-0.0263,-0.0263,-0.0211,-0.0204,-0.0192,-0.015,-0.0146,-0.0154,-0.0152,-0.015,-0.0149,0,0,0,0,0,0,0,-0.0412,-0.0406,-0.0361,-0.036,-0.0355,-0.033,-0.0323,-0.0294,-0.0258,-0.0294,-0.0291,-0.0283,-0.0208,-0.0195,-0.0189,-0.0145,-0.0154,-0.0151,-0.0149,-0.0148,-0.0082,-0.0082,0,0,0,0,0,0,-0.0423,-0.0409,-0.0363,-0.0359,-0.038,-0.0329,-0.0322,-0.0317,-0.0258,-0.0249,-0.0283,-0.028,-0.0201,-0.0193,-0.0186,-0.0174,-0.015,-0.0147,-0.0145,-0.0082,-0.0082,-0.0082,0,0,0,0,0,0,-0.0425,-0.042,-0.0366,-0.0382,-0.0373,-0.0329,-0.0324,-0.0316,-0.0302,-0.025,-0.024,-0.0277,-0.02,-0.019,-0.0161,-0.017,-0.0146,-0.0143,-0.0082,-0.0082,-0.0082,-0.015,0,0,0,0,0,0,-0.0427,-0.0421,-0.0424,-0.0383,-0.0373,-0.0353,-0.0324,-0.0314,-0.0297,-0.0293,-0.0242,-0.0232,-0.0199,-0.0166,-0.0158,-0.0165,-0.014,-0.0081,-0.0082,-0.0082,-0.0147,-0.0152,-0.0157,0,0,0,0,0,-0.0429,-0.0437,-0.0425,-0.0419,-0.0378,-0.0353,-0.0346,-0.0312,-0.0298,-0.0297,-0.026,-0.0234,-0.0163,-0.0164,-0.0154,-0.0161,-0.0081,-0.0082,-0.0082,-0.0145,-0.0151,-0.0157,0,0,0,0,0,0,-0.0464,-0.0431,-0.0417,-0.0414,-0.0389,-0.0345,-0.0341,-0.0318,-0.0288,-0.0285,-0.0235,-0.0224,-0.0202,-0.0171,-0.0174,-0.0142,-0.0118,-0.0117,-0.017,-0.0175,-0.018,-0.0185,-0.0137,0,0,0,0,0,-0.0474,-0.0472,-0.0435,-0.0434,-0.0424,-0.0385,-0.0371,-0.0349,-0.0316,-0.0302,-0.0265,-0.0227,-0.0196,-0.0179,-0.0147,-0.013,-0.0092,-0.0128,-0.0132,-0.0137,-0.0134,-0.0085,-0.0085,-0.0084,-0.0084,-0.0084,0,0,-0.0487,-0.0469,-0.0468,-0.0441,-0.042,-0.0415,-0.0376,-0.0361,-0.0354,-0.0297,-0.0279,-0.0242,-0.0195,-0.0176,-0.0164,-0.0152,-0.0119,-0.0137,-0.0141,-0.0136,-0.0085,-0.0085,-0.0085,-0.0084,-0.0084,-0.0084,0,0,-0.052,-0.0498,-0.0511,-0.0494,-0.0468,-0.0441,-0.0441,-0.04,-0.038,-0.0357,-0.0316,-0.0284,-0.0238,-0.0206,-0.0184,-0.0195,-0.0146,-0.0186,-0.0214,-0.0167,-0.0167,-0.0166,-0.0128,-0.0123,-0.0189,-0.0189,-0.0189,0,-0.0539,-0.0547,-0.0511,-0.0518,-0.051,-0.0458,-0.047,-0.0441,-0.0396,-0.038,-0.0362,-0.0287,-0.0252,-0.0221,-0.0224,-0.0206,-0.0171,-0.0199,-0.0174,-0.0172,-0.017,-0.0131,-0.0125,-0.0192,-0.0192,-0.0192,-0.0191,0,-0.0578,-0.0586,-0.0592,-0.0584,-0.0569,-0.057,-0.0527,-0.0509,-0.0477,-0.0442,-0.0402,-0.0346,-0.0301,-0.0288,-0.0258,-0.023,-0.0207,-0.0187,-0.0162,-0.0174,-0.0132,-0.0125,-0.0197,-0.0196,-0.0195,-0.0194,0,0,-0.0619,-0.0622,-0.0624,-0.0639,-0.0605,-0.0601,-0.0585,-0.0556,-0.0547,-0.0492,-0.047,-0.0413,-0.0373,-0.0344,-0.03,-0.0258,-0.022,-0.022,-0.0216,-0.0188,-0.0118,-0.007,-0.0057,-0.0193,-0.0192,-0.0191,-0.0098,0,-0.0664,-0.0703,-0.0683,-0.0714,-0.0731,-0.0681,-0.0671,-0.0634,-0.059,-0.0554,-0.0479,-0.0443,-0.0397,-0.0377,-0.0326,-0.0242,-0.0201,-0.0247,-0.0105,-0.0101,-0.0061,-0.0046,-0.0021,0.0067,-0.009,-0.0089,-0.0088,0,-0.0709,-0.073,-0.0774,-0.0788,-0.0788,-0.0792,-0.0767,-0.0752,-0.0679,-0.0644,-0.0581,-0.0514,-0.0439,-0.0401,-0.0261,-0.0291,-0.0212,-0.0146,-0.014,-0.0064,-0.0038,0.0057,0.0087,0.0233,-0.0076,-0.0077,-0.0077,0,-0.0763,-0.0794,-0.0835,-0.0838,-0.0837,-0.0844,-0.0835,-0.0781,-0.0769,-0.0696,-0.0671,-0.0566,-0.0511,-0.0395,-0.0248,-0.0255,-0.0087,-0.0081,0.0035,0.0039,0.0106,0.0114,0.0293,0.0014,0.0014,0.0013,0.0013,0,-0.0819,-0.0852,-0.0868,-0.0892,-0.0939,-0.0905,-0.0928,-0.0901,-0.0848,-0.0832,-0.0723,-0.0679,-0.0504,-0.0381,-0.0258,-0.0077,-0.0092,0.004,0.0073,0.0082,0.0087,0.0254,0.031,0.0017,0.0016,0.0015,0.0015,0,-0.0874,-0.0882,-0.0939,-0.096,-0.0971,-0.1003,-0.1006,-0.1011,-0.0951,-0.0923,-0.09,-0.0755,-0.0586,-0.0402,-0.0203,-0.0089,0.0169,0.0135,0.0134,0.0165,0.0401,0.0451,0.0654,0.0741,0.0274,0.0276,0.0278,0,-0.0906,-0.0941,-0.1001,-0.1043,-0.1059,-0.1095,-0.1114,-0.1074,-0.1069,-0.0968,-0.0955,-0.0783,-0.0647,-0.0326,-0.0089,0.0154,0.0258,0.0306,0.03,0.0434,0.0514,0.054,0.0599,0.0357,0.0359,0.0361,0.0362,0,-0.097,-0.099,-0.1036,-0.1124,-0.117,-0.1217,-0.1236,-0.1243,-0.1176,-0.1126,-0.1022,-0.0899,-0.0566,-0.0257,0.0072,0.0207,0.042,0.0348,0.0496,0.0609,0.0641,0.0732,0.0267,0.0377,0.0376,0.0375,0.0374,0.0373,-0.101,-0.1065,-0.1126,-0.1205,-0.1263,-0.1315,-0.1341,-0.1331,-0.1309,-0.1206,-0.1079,-0.0861,-0.0406,0.0073,0.0247,0.0612,0.0568,0.0703,0.0756,0.0772,0.0858,0.0424,0.0565,0.0565,0.0564,0.0564,0.0564,0,-0.1057,-0.1116,-0.12,-0.1292,-0.136,-0.1369,-0.1401,-0.1393,-0.1359,-0.122,-0.1081,-0.0576,-0.0128,0.0292,0.0814,0.1007,0.1044,0.1095,0.1142,0.1185,0.0818,0.0825,0.1018,0.1018,0.1018,0.1018,0.1018,0.1017,-0.1085,-0.1173,-0.122,-0.1344,-0.1403,-0.146,-0.1469,-0.1445,-0.1347,-0.1094,-0.0807,-0.0582,0.0057,0.0892,0.1361,0.1388,0.1551,0.1529,0.1626,0.1374,0.1341,0.131,0.1332,0.1628,0.1629,0.1972,0.1976,0.1978]}],[{"header":{"parameterUnit":"m.s-1","parameterCategory":2,"la1":30.2991,"la2":30.254,"lo1":-89.0895,"lo2":-89.0444,"dy":0.0017,"dx":0.0017,"nx":28,"ny":28,"refTime":"2024-03-17T03:00:00:Z","depth":"2","parameterNumber":2,"parameterNumberName":"U-component_of_CURRENTS"},"data":[0,0,0,0,0,0,0,0,0,0,0,0,0,0,0,0,0,0,0,0,0,0,0,0,0,0,0,0,0,0,0,0,0,0,0,0,0,0,0,0,0,0,0,0,0,0,0,0,0,0,0,0,0,0,0,0,0,0,-0.2433,-0.2433,0,-0.2459,-0.2459,-0.2459,-0.2432,-0.2431,-0.243,-0.243,-0.2415,-0.2415,-0.2416,0,0,0,0,0,0,0,0,0,0,0,0,0,-0.2367,-0.2368,-0.2433,-0.2433,-0.2434,-0.2459,-0.2459,-0.2459,-0.2432,-0.2431,-0.243,-0.2429,-0.2415,-0.2415,-0.2416,0,0,0,0,0,0,0,0,0,0,0,0,0,-0.2392,-0.2368,-0.2432,-0.2425,-0.2425,-0.2459,-0.2459,-0.2459,-0.2432,-0.2431,-0.243,-0.2429,-0.2415,-0.2415,-0.2416,-0.2444,0,0,-0.2418,-0.2418,0,0,0,0,0,0,0,0,-0.2391,-0.2394,-0.2426,-0.2426,-0.2426,-0.2443,-0.2431,-0.2453,-0.2433,-0.2427,-0.243,-0.2428,-0.2423,-0.2423,-0.2428,-0.2443,-0.2443,-0.2418,-0.2418,-0.2418,-0.2418,0,0,0,0,0,0,0,-0.2389,-0.2393,-0.244,-0.2426,-0.2426,-0.2424,-0.2425,-0.2435,-0.2429,-0.2427,-0.2426,-0.2433,-0.2422,-0.2427,-0.2427,-0.2442,-0.2418,-0.2418,-0.2418,-0.2419,-0.2473,-0.2474,0,0,0,0,0,0,-0.2392,-0.2391,-0.244,-0.2441,-0.2408,-0.2426,-0.2428,-0.2437,-0.243,-0.2428,-0.2434,-0.2432,-0.2427,-0.2426,-0.2426,-0.2457,-0.2418,-0.2419,-0.2419,-0.2472,-0.2473,-0.2474,0,0,0,0,0,0,-0.2391,-0.2396,-0.2439,-0.2419,-0.2424,-0.2428,-0.2439,-0.2438,-0.2439,-0.2436,-0.2433,-0.2436,-0.2426,-0.2426,-0.2434,-0.2456,-0.2419,-0.2419,-0.247,-0.2472,-0.2474,-0.252,0,0,0,0,0,0,-0.2389,-0.2396,-0.2398,-0.2419,-0.2426,-0.246,-0.244,-0.2439,-0.2447,-0.2444,-0.2437,-0.2434,-0.2425,-0.2433,-0.2435,-0.2456,-0.242,-0.2469,-0.2471,-0.2473,-0.2518,-0.2523,-0.2529,0,0,0,0,0,-0.2386,-0.2398,-0.2398,-0.2404,-0.2431,-0.2461,-0.2464,-0.246,-0.2449,-0.2455,-0.2448,-0.2434,-0.2447,-0.2435,-0.2436,-0.2459,-0.2468,-0.2471,-0.2473,-0.2515,-0.2522,-0.2528,0,0,0,0,0,0,-0.2369,-0.2398,-0.2397,-0.2416,-0.2437,-0.2457,-0.2462,-0.2465,-0.2467,-0.2458,-0.2448,-0.2446,-0.2464,-0.2456,-0.2443,-0.2481,-0.2456,-0.2459,-0.2488,-0.2495,-0.25,-0.2497,-0.242,0,0,0,0,0,-0.2369,-0.2381,-0.2412,-0.2423,-0.2435,-0.2449,-0.2459,-0.2463,-0.2471,-0.247,-0.2468,-0.2467,-0.2479,-0.248,-0.2486,-0.2507,-0.2492,-0.2523,-0.2529,-0.2533,-0.2533,-0.2536,-0.2542,-0.2482,-0.2482,-0.2482,0,0,-0.2364,-0.2381,-0.2386,-0.242,-0.2431,-0.2461,-0.2451,-0.247,-0.2492,-0.247,-0.2488,-0.2487,-0.2489,-0.2511,-0.2518,-0.2505,-0.2542,-0.2536,-0.254,-0.2537,-0.2539,-0.2545,-0.255,-0.2484,-0.2484,-0.2483,0,0,-0.2367,-0.2378,-0.2392,-0.2418,-0.2447,-0.2463,-0.2472,-0.2497,-0.2503,-0.2529,-0.2519,-0.2531,-0.2544,-0.2552,-0.2558,-0.26,-0.2573,-0.2602,-0.2627,-0.2631,-0.2636,-0.2639,-0.2624,-0.2626,-0.2603,-0.2603,-0.2603,0,-0.2358,-0.2383,-0.2401,-0.2431,-0.2451,-0.2467,-0.2495,-0.2516,-0.254,-0.2549,-0.2537,-0.2566,-0.2567,-0.26,-0.2613,-0.2614,-0.2599,-0.2601,-0.2637,-0.2641,-0.2644,-0.2628,-0.2629,-0.2606,-0.2605,-0.2605,-0.2605,0,-0.2379,-0.2402,-0.2415,-0.2456,-0.2484,-0.2508,-0.2548,-0.2568,-0.2576,-0.2594,-0.2622,-0.2626,-0.2638,-0.2649,-0.2644,-0.2674,-0.2651,-0.2645,-0.2618,-0.2653,-0.2633,-0.2634,-0.2609,-0.2608,-0.2608,-0.2607,0,0,-0.2342,-0.2413,-0.2415,-0.2439,-0.2497,-0.252,-0.2568,-0.261,-0.2634,-0.2654,-0.2681,-0.2708,-0.27,-0.2706,-0.2704,-0.2711,-0.2724,-0.2686,-0.2685,-0.2667,-0.2714,-0.2628,-0.2621,-0.272,-0.2721,-0.2721,-0.269,0,-0.2344,-0.2396,-0.2437,-0.2485,-0.2512,-0.2557,-0.26,-0.2642,-0.2671,-0.2703,-0.2716,-0.2738,-0.2726,-0.2729,-0.2738,-0.273,-0.2729,-0.2732,-0.2687,-0.2685,-0.2602,-0.262,-0.2399,-0.2346,-0.2691,-0.2691,-0.2691,0,-0.2343,-0.2378,-0.2423,-0.2496,-0.2512,-0.2546,-0.2607,-0.2651,-0.2709,-0.2731,-0.2757,-0.2767,-0.2788,-0.2769,-0.2766,-0.2765,-0.2741,-0.2731,-0.2729,-0.2631,-0.2601,-0.2369,-0.2334,-0.2692,-0.2692,-0.2692,-0.2692,0,-0.2289,-0.2366,-0.2394,-0.242,-0.2507,-0.2531,-0.2574,-0.2645,-0.2684,-0.2741,-0.2766,-0.2793,-0.2798,-0.2788,-0.2764,-0.2764,-0.2749,-0.2747,-0.2646,-0.2639,-0.2432,-0.2406,-0.2739,-0.2739,-0.2739,-0.2739,-0.2739,0,-0.2267,-0.229,-0.2367,-0.2382,-0.2423,-0.2494,-0.254,-0.2596,-0.2668,-0.2699,-0.2762,-0.2779,-0.2802,-0.2798,-0.2773,-0.2703,-0.2751,-0.2646,-0.2627,-0.2442,-0.2418,-0.2705,-0.2702,-0.2738,-0.2738,-0.2738,-0.2738,0,-0.2201,-0.2252,-0.2293,-0.2373,-0.2397,-0.2423,-0.2518,-0.2541,-0.2629,-0.2671,-0.2686,-0.2766,-0.2753,-0.2763,-0.2744,-0.2697,-0.2653,-0.2615,-0.2388,-0.2342,-0.2538,-0.2538,-0.25,-0.2497,-0.2494,-0.2492,-0.249,0,-0.2171,-0.218,-0.2264,-0.2273,-0.2304,-0.2356,-0.238,-0.2495,-0.2528,-0.2641,-0.2643,-0.2682,-0.267,-0.2629,-0.2543,-0.2472,-0.2572,-0.2244,-0.221,-0.253,-0.2515,-0.2519,-0.2522,-0.1951,-0.1945,-0.194,-0.1936,0,-0.2095,-0.2123,-0.2144,-0.2178,-0.22,-0.2247,-0.2297,-0.2327,-0.2439,-0.2487,-0.2528,-0.2537,-0.2499,-0.2323,-0.2248,-0.2186,-0.224,-0.2138,-0.252,-0.2055,-0.2011,-0.1998,-0.2019,-0.1891,-0.1896,-0.1899,-0.1901,-0.1903,-0.2012,-0.2013,-0.2032,-0.2052,-0.2082,-0.2096,-0.2081,-0.2144,-0.2183,-0.2195,-0.2303,-0.2229,-0.2206,-0.1967,-0.1865,-0.1787,-0.1955,-0.1864,-0.188,-0.1901,-0.1851,-0.1807,-0.1637,-0.164,-0.1643,-0.1645,-0.1647,0,-0.1893,-0.1895,-0.1901,-0.1913,-0.1881,-0.1955,-0.1981,-0.1929,-0.1905,-0.194,-0.1935,-0.1712,-0.1585,-0.1584,-0.1377,-0.135,-0.1342,-0.1306,-0.1281,-0.1325,-0.1366,-0.129,-0.0926,-0.0924,-0.0922,-0.092,0,0,-0.1821,-0.1774,-0.1783,-0.1693,-0.1694,-0.1612,-0.1592,-0.1547,-0.154,-0.1458,-0.1405,-0.1476,-0.1522,-0.1205,-0.1139,-0.0999,-0.1159,-0.0952,-0.1526,-0.154,-0.1578,-0.1679,-0.1611,0,0,0,0,0]},{"header":{"parameterUnit":"m.s-1","parameterCategory":2,"la1":30.2991,"la2":30.254,"lo1":-89.0895,"lo2":-89.0444,"dy":0.0017,"dx":0.0017,"nx":28,"ny":28,"refTime":"2024-03-17T03:00:00:Z","depth":"2","parameterNumber":3,"parameterNumberName":"V-component_of_CURRENTS"},"data":[0,0,0,0,0,0,0,0,0,0,0,0,0,0,0,0,0,0,0,0,0,0,0,0,0,0,0,0,0,0,0,0,0,0,0,0,0,0,0,0,0,0,0,0,0,0,0,0,0,0,0,0,0,0,0,0,0,0,-0.0277,-0.0276,0,-0.0206,-0.0205,-0.0204,-0.0157,-0.0157,-0.0157,-0.0156,-0.0066,-0.0064,-0.0062,0,0,0,0,0,0,0,0,0,0,0,0,0,-0.0336,-0.0335,-0.0277,-0.0276,-0.0275,-0.0206,-0.0205,-0.0204,-0.0157,-0.0157,-0.0157,-0.0156,-0.0067,-0.0064,-0.0062,0,0,0,0,0,0,0,0,0,0,0,0,0,-0.0292,-0.0335,-0.0277,-0.0244,-0.024,-0.0206,-0.0205,-0.0203,-0.0157,-0.0157,-0.0157,-0.0156,-0.0068,-0.0064,-0.0061,-0.005,0,0,-0.0051,-0.005,0,0,0,0,0,0,0,0,-0.0295,-0.029,-0.0249,-0.0246,-0.0242,-0.019,-0.0192,-0.0151,-0.0158,-0.0189,-0.0156,-0.0156,-0.0106,-0.01,-0.0087,-0.0046,-0.0042,-0.0051,-0.0049,-0.0048,-0.0047,0,0,0,0,0,0,0,-0.0298,-0.0293,-0.0248,-0.0248,-0.0244,-0.022,-0.0213,-0.0184,-0.015,-0.0186,-0.0182,-0.0175,-0.0104,-0.0091,-0.0085,-0.0041,-0.0051,-0.0048,-0.0046,-0.0045,0.0019,0.0019,0,0,0,0,0,0,-0.0309,-0.0296,-0.0251,-0.0246,-0.0268,-0.0219,-0.0212,-0.0207,-0.0151,-0.0142,-0.0175,-0.0173,-0.0096,-0.0089,-0.0081,-0.0071,-0.0048,-0.0045,-0.0043,0.0019,0.0019,0.0019,0,0,0,0,0,0,-0.0311,-0.0306,-0.0254,-0.0269,-0.0261,-0.0219,-0.0213,-0.0206,-0.0193,-0.0143,-0.0134,-0.0171,-0.0096,-0.0086,-0.0058,-0.0067,-0.0043,-0.0041,0.0019,0.0019,0.0019,-0.0047,0,0,0,0,0,0,-0.0313,-0.0307,-0.0311,-0.027,-0.026,-0.0241,-0.0213,-0.0205,-0.0189,-0.0186,-0.0136,-0.0127,-0.0095,-0.0063,-0.0055,-0.0063,-0.0038,0.002,0.0019,0.0019,-0.0045,-0.005,-0.0054,0,0,0,0,0,-0.0315,-0.0322,-0.0311,-0.0306,-0.0266,-0.0241,-0.0234,-0.0202,-0.019,-0.0189,-0.0154,-0.0129,-0.006,-0.0061,-0.0051,-0.0058,0.002,0.0019,0.0019,-0.0043,-0.0049,-0.0054,0,0,0,0,0,0,-0.0349,-0.0317,-0.0304,-0.0301,-0.0277,-0.0234,-0.0231,-0.0209,-0.018,-0.0178,-0.013,-0.0119,-0.0098,-0.0068,-0.0071,-0.004,-0.0016,-0.0015,-0.0067,-0.0072,-0.0077,-0.0083,-0.0035,0,0,0,0,0,-0.036,-0.0358,-0.0321,-0.032,-0.0311,-0.0273,-0.026,-0.024,-0.0208,-0.0195,-0.0159,-0.0122,-0.0092,-0.0075,-0.0044,-0.0028,0.0009,-0.0026,-0.003,-0.0035,-0.0033,0.0015,0.0015,0.0017,0.0017,0.0017,0,0,-0.0373,-0.0356,-0.0354,-0.0328,-0.0308,-0.0303,-0.0265,-0.0252,-0.0245,-0.019,-0.0173,-0.0138,-0.0091,-0.0073,-0.0061,-0.0049,-0.0018,-0.0035,-0.0039,-0.0035,0.0015,0.0015,0.0015,0.0017,0.0017,0.0017,0,0,-0.0405,-0.0384,-0.0397,-0.038,-0.0355,-0.0329,-0.0329,-0.029,-0.0271,-0.025,-0.0209,-0.0179,-0.0134,-0.0102,-0.008,-0.0091,-0.0045,-0.0084,-0.0111,-0.0065,-0.0065,-0.0064,-0.0028,-0.0024,-0.0086,-0.0086,-0.0086,0,-0.0425,-0.0432,-0.0397,-0.0404,-0.0395,-0.0346,-0.0357,-0.033,-0.0286,-0.0271,-0.0254,-0.0183,-0.0148,-0.0117,-0.0121,-0.0102,-0.0069,-0.0096,-0.0072,-0.007,-0.0068,-0.0031,-0.0025,-0.0089,-0.0089,-0.0088,-0.0088,0,-0.0462,-0.047,-0.0476,-0.0468,-0.0453,-0.0454,-0.0412,-0.0396,-0.0366,-0.0332,-0.0294,-0.024,-0.0197,-0.0183,-0.0154,-0.0126,-0.0106,-0.0085,-0.006,-0.0073,-0.0033,-0.0026,-0.0094,-0.0093,-0.0092,-0.0091,0,0,-0.0503,-0.0505,-0.0508,-0.0521,-0.0489,-0.0484,-0.0469,-0.0441,-0.0433,-0.038,-0.036,-0.0304,-0.0266,-0.0239,-0.0196,-0.0154,-0.0119,-0.0119,-0.0115,-0.0088,-0.0021,0.0022,0.0034,-0.0092,-0.009,-0.009,-0.0002,0,-0.0547,-0.0585,-0.0564,-0.0594,-0.061,-0.0562,-0.0552,-0.0516,-0.0475,-0.0441,-0.0369,-0.0334,-0.0289,-0.0272,-0.0222,-0.014,-0.01,-0.0144,-0.0007,-0.0004,0.0032,0.0044,0.002,0.0099,0.0005,0.0007,0.0007,0,-0.0591,-0.0612,-0.0653,-0.0665,-0.0666,-0.067,-0.0646,-0.0631,-0.0562,-0.0528,-0.0469,-0.0405,-0.0333,-0.0296,-0.016,-0.0189,-0.0114,-0.0049,-0.0043,0.0027,0.0053,0.0099,0.0116,0.002,0.0019,0.0018,0.0017,0,-0.0645,-0.0674,-0.0713,-0.0715,-0.0714,-0.0721,-0.0713,-0.0661,-0.0649,-0.058,-0.0557,-0.0456,-0.0405,-0.0292,-0.0151,-0.0156,0.0005,0.0013,0.0122,0.0125,0.0149,0.0153,0.0104,0.0104,0.0104,0.0104,0.0104,0,-0.07,-0.0732,-0.0746,-0.0769,-0.0816,-0.0782,-0.0806,-0.078,-0.0729,-0.0714,-0.0609,-0.0569,-0.0399,-0.0281,-0.0161,0.0012,-0.0001,0.0126,0.0157,0.0124,0.0125,0.0093,0.0091,0.0107,0.0106,0.0106,0.0105,0,-0.0754,-0.0762,-0.0817,-0.0837,-0.0848,-0.0879,-0.0883,-0.0888,-0.0831,-0.0804,-0.0783,-0.0645,-0.0484,-0.0306,-0.0113,-0.0002,0.0154,0.0214,0.0163,0.0187,0.0242,0.0235,0.034,0.0342,0.0344,0.0346,0.0347,0,-0.0787,-0.0821,-0.0878,-0.0919,-0.0936,-0.0971,-0.099,-0.0951,-0.0946,-0.085,-0.0838,-0.0675,-0.0546,-0.0238,-0.0016,0.0217,0.0211,0.0321,0.0311,0.0249,0.0269,0.0259,0.025,0.0308,0.0309,0.031,0.0311,0,-0.085,-0.087,-0.0914,-0.1,-0.1046,-0.109,-0.1109,-0.1116,-0.105,-0.1005,-0.0906,-0.0789,-0.0478,-0.0205,0.0107,0.0229,0.0285,0.0346,0.0307,0.0254,0.0228,0.0244,0.0235,0.0318,0.0317,0.0317,0.0316,0.0316,-0.0891,-0.0945,-0.1004,-0.1081,-0.1138,-0.1187,-0.1212,-0.1198,-0.1177,-0.1063,-0.0954,-0.0736,-0.0471,-0.0011,0.0194,0.0382,0.0372,0.0421,0.0415,0.0409,0.0392,0.0371,0.0484,0.0484,0.0484,0.0484,0.0484,0,-0.0937,-0.0996,-0.1078,-0.1167,-0.123,-0.1242,-0.1271,-0.1249,-0.1212,-0.1061,-0.0922,-0.0603,-0.0285,-0.0011,0.0304,0.0483,0.0448,0.0501,0.0427,0.042,0.0413,0.0392,0.0487,0.0487,0.0488,0.0488,0,0,-0.0964,-0.105,-0.1094,-0.1214,-0.1273,-0.1323,-0.1332,-0.1278,-0.1165,-0.0999,-0.0817,-0.0576,-0.0244,-0.0019,0.0201,0.0364,0.0338,0.0365,0.0345,0.0225,0.0217,0.0351,0.031,0,0,0,0,0]}],[{"header":{"parameterUnit":"m.s-1","parameterCategory":2,"la1":30.2991,"la2":30.254,"lo1":-89.0895,"lo2":-89.0444,"dy":0.0017,"dx":0.0017,"nx":28,"ny":28,"refTime":"2024-03-17T03:00:00:Z","depth":"4","parameterNumber":2,"parameterNumberName":"U-component_of_CURRENTS"},"data":[0,0,0,0,0,0,0,0,0,0,0,0,0,0,0,0,0,0,0,0,0,0,0,0,0,0,0,0,0,0,0,0,0,0,0,0,0,0,0,0,0,0,0,0,0,0,0,0,0,0,0,0,0,0,0,0,0,0,-0.1701,-0.1702,0,-0.1763,-0.1764,-0.1764,-0.1801,-0.1801,-0.1802,-0.1802,-0.1869,-0.187,-0.1872,0,0,0,0,0,0,0,0,0,0,0,0,0,-0.1617,-0.1618,-0.1701,-0.1702,-0.1703,-0.1763,-0.1764,-0.1765,-0.1801,-0.1801,-0.1802,-0.1802,-0.1868,-0.187,-0.1872,0,0,0,0,0,0,0,0,0,0,0,0,0,-0.1662,-0.1618,-0.1701,-0.1729,-0.1733,-0.1763,-0.1764,-0.1765,-0.1801,-0.1801,-0.1802,-0.1802,-0.1868,-0.187,-0.1872,-0.1877,0,0,-0.1879,-0.188,0,0,0,0,0,0,0,0,-0.1659,-0.1665,-0.1724,-0.1727,-0.1731,-0.1776,-0.1759,-0.1803,-0.1801,-0.1773,-0.1802,-0.1802,-0.1839,-0.1844,-0.1852,-0.188,-0.1883,-0.1879,-0.1881,-0.1882,-0.1882,0,0,0,0,0,0,0,-0.1656,-0.1662,-0.1724,-0.1725,-0.1729,-0.174,-0.1747,-0.1767,-0.1802,-0.1776,-0.1779,-0.1788,-0.1841,-0.185,-0.1854,-0.1884,-0.1879,-0.1881,-0.1883,-0.1883,-0.1992,-0.1994,0,0,0,0,0,0,-0.1651,-0.166,-0.1722,-0.1726,-0.1697,-0.1742,-0.1749,-0.176,-0.1801,-0.1809,-0.1788,-0.179,-0.1846,-0.1851,-0.1856,-0.1936,-0.1882,-0.1884,-0.1885,-0.1991,-0.1993,-0.1994,0,0,0,0,0,0,-0.1649,-0.1656,-0.1719,-0.1695,-0.1704,-0.1743,-0.1755,-0.1761,-0.1798,-0.1811,-0.1818,-0.1822,-0.1846,-0.1853,-0.19,-0.1937,-0.1885,-0.1887,-0.1989,-0.1991,-0.1993,-0.2051,0,0,0,0,0,0,-0.1647,-0.1655,-0.1674,-0.1695,-0.1706,-0.1756,-0.1755,-0.1762,-0.1802,-0.1806,-0.1842,-0.1847,-0.1847,-0.1897,-0.1902,-0.1939,-0.1888,-0.1987,-0.199,-0.1993,-0.2047,-0.2055,-0.2061,0,0,0,0,0,-0.1643,-0.1664,-0.1675,-0.1683,-0.1726,-0.1757,-0.1764,-0.1791,-0.1804,-0.1826,-0.1851,-0.1847,-0.1919,-0.19,-0.1906,-0.1944,-0.1986,-0.1989,-0.1992,-0.2044,-0.2053,-0.2061,0,0,0,0,0,0,-0.1639,-0.167,-0.1682,-0.1713,-0.1742,-0.1765,-0.1791,-0.1809,-0.1846,-0.1858,-0.1867,-0.1874,-0.1929,-0.1929,-0.1907,-0.1984,-0.1952,-0.1957,-0.1989,-0.1998,-0.2005,-0.1997,-0.189,0,0,0,0,0,-0.1646,-0.1669,-0.1699,-0.1726,-0.1743,-0.1772,-0.1794,-0.1814,-0.1843,-0.1862,-0.1888,-0.1916,-0.1943,-0.1965,-0.1986,-0.2029,-0.2011,-0.2057,-0.2064,-0.2071,-0.2069,-0.2077,-0.2085,-0.2006,-0.2006,-0.2005,0,0,-0.1653,-0.1673,-0.1688,-0.1727,-0.1752,-0.1786,-0.1787,-0.1829,-0.1865,-0.1863,-0.1927,-0.1945,-0.196,-0.2008,-0.2033,-0.2017,-0.2084,-0.2075,-0.208,-0.2075,-0.2081,-0.2089,-0.2096,-0.2008,-0.2007,-0.2007,0,0,-0.1667,-0.1696,-0.1719,-0.1749,-0.1793,-0.1812,-0.1831,-0.1874,-0.1904,-0.196,-0.1968,-0.2008,-0.2055,-0.2071,-0.2084,-0.2145,-0.2121,-0.2158,-0.2192,-0.2201,-0.2207,-0.2212,-0.2194,-0.2198,-0.2163,-0.2163,-0.2163,0,-0.1677,-0.1707,-0.1732,-0.1764,-0.1794,-0.1829,-0.1864,-0.19,-0.1956,-0.1982,-0.199,-0.2064,-0.2083,-0.2131,-0.2155,-0.2162,-0.2151,-0.2158,-0.2209,-0.2214,-0.2218,-0.2199,-0.2201,-0.2166,-0.2166,-0.2165,-0.2165,0,-0.1699,-0.1739,-0.1758,-0.1808,-0.1845,-0.1882,-0.1931,-0.1977,-0.2018,-0.2048,-0.2114,-0.2139,-0.2177,-0.2197,-0.2198,-0.2245,-0.2222,-0.2215,-0.2183,-0.2229,-0.2206,-0.2208,-0.2171,-0.2169,-0.2169,-0.2168,0,0,-0.1674,-0.1757,-0.1766,-0.18,-0.1872,-0.19,-0.1969,-0.2028,-0.2073,-0.213,-0.218,-0.2237,-0.2248,-0.2262,-0.2272,-0.2287,-0.2313,-0.227,-0.2269,-0.2246,-0.2314,-0.2151,-0.2136,-0.2317,-0.2317,-0.2318,-0.2283,0,-0.1685,-0.1745,-0.179,-0.1859,-0.1893,-0.1954,-0.2011,-0.2073,-0.2128,-0.2186,-0.2221,-0.2272,-0.2273,-0.2297,-0.2315,-0.2316,-0.2321,-0.2322,-0.2279,-0.2277,-0.212,-0.2134,-0.2321,-0.2284,-0.2285,-0.2285,-0.2285,0,-0.1682,-0.1725,-0.1791,-0.188,-0.1903,-0.1955,-0.2045,-0.2102,-0.2185,-0.2227,-0.228,-0.2307,-0.235,-0.2341,-0.2356,-0.2356,-0.234,-0.2333,-0.2331,-0.2157,-0.2116,-0.2231,-0.2288,-0.2287,-0.2287,-0.2287,-0.2287,0,-0.1626,-0.1723,-0.1776,-0.1808,-0.1914,-0.1962,-0.2021,-0.2113,-0.2163,-0.2252,-0.2288,-0.2341,-0.2366,-0.2368,-0.2356,-0.2363,-0.2351,-0.2353,-0.2187,-0.2175,-0.2309,-0.2303,-0.2354,-0.2354,-0.2354,-0.2354,-0.2355,0,-0.1597,-0.1644,-0.1761,-0.1786,-0.1857,-0.194,-0.2017,-0.2086,-0.2176,-0.2212,-0.23,-0.2316,-0.2376,-0.2377,-0.2361,-0.2261,-0.235,-0.2181,-0.2153,-0.2333,-0.2331,-0.2309,-0.2304,-0.2353,-0.2353,-0.2354,-0.2354,0,-0.1524,-0.1601,-0.167,-0.179,-0.1832,-0.1882,-0.2007,-0.2043,-0.2149,-0.2196,-0.2223,-0.2306,-0.2291,-0.2319,-0.2313,-0.224,-0.2182,-0.2127,-0.2301,-0.2286,-0.2001,-0.2,-0.1931,-0.1925,-0.1919,-0.1915,-0.1911,0,-0.1488,-0.1516,-0.1654,-0.1689,-0.1749,-0.1838,-0.1881,-0.201,-0.2043,-0.2154,-0.2148,-0.2192,-0.2218,-0.2074,-0.2125,-0.2065,-0.2045,-0.2002,-0.2014,-0.1976,-0.1957,-0.1965,-0.197,-0.1903,-0.1902,-0.19,-0.1899,0,-0.1409,-0.1474,-0.1523,-0.1601,-0.1661,-0.1724,-0.1799,-0.1812,-0.1927,-0.2047,-0.2011,-0.1992,-0.1969,-0.1953,-0.1918,-0.1881,-0.2024,-0.1948,-0.1959,-0.197,-0.1942,-0.193,-0.1942,-0.1881,-0.1884,-0.1885,-0.1886,0,-0.1343,-0.1362,-0.143,-0.1483,-0.1554,-0.1567,-0.1635,-0.1655,-0.1708,-0.1836,-0.181,-0.1855,-0.1936,-0.1854,-0.182,-0.1769,-0.1747,-0.1693,-0.1717,-0.1738,-0.169,-0.1628,-0.1433,0,0,0,0,0,-0.1264,-0.1263,-0.1301,-0.1346,-0.1408,-0.1448,-0.155,-0.1616,-0.1733,-0.1654,-0.1731,-0.1696,-0.1644,-0.1677,-0.1582,-0.1729,-0.1754,-0.161,-0.1707,-0.1781,-0.1802,-0.1764,0,0,0,0,0,0,-0.1206,-0.1236,-0.1251,-0.1208,-0.1208,-0.1259,-0.1313,-0.1397,-0.1376,-0.1502,-0.1486,-0.158,-0.1562,-0.1662,-0.154,-0.1548,-0.1569,-0.1654,-0.1649,-0.177,-0.1788,-0.1805,-0.1773,0,0,0,0,0]},{"header":{"parameterUnit":"m.s-1","parameterCategory":2,"la1":30.2991,"la2":30.254,"lo1":-89.0895,"lo2":-89.0444,"dy":0.0017,"dx":0.0017,"nx":28,"ny":28,"refTime":"2024-03-17T03:00:00:Z","depth":"4","parameterNumber":3,"parameterNumberName":"V-component_of_CURRENTS"},"data":[0,0,0,0,0,0,0,0,0,0,0,0,0,0,0,0,0,0,0,0,0,0,0,0,0,0,0,0,0,0,0,0,0,0,0,0,0,0,0,0,0,0,0,0,0,0,0,0,0,0,0,0,0,0,0,0,0,0,-0.0114,-0.0114,0,-0.007,-0.0069,-0.0069,-0.0038,-0.0038,-0.0037,-0.0037,0.0029,0.003,0.0032,0,0,0,0,0,0,0,0,0,0,0,0,0,-0.0145,-0.0145,-0.0115,-0.0114,-0.0113,-0.007,-0.0069,-0.0069,-0.0038,-0.0038,-0.0037,-0.0037,0.0028,0.003,0.0032,0,0,0,0,0,0,0,0,0,0,0,0,0,-0.0119,-0.0145,-0.0115,-0.0093,-0.0091,-0.007,-0.0069,-0.0069,-0.0038,-0.0038,-0.0037,-0.0037,0.0027,0.003,0.0032,0.004,0,0,0.0039,0.004,0,0,0,0,0,0,0,0,-0.0121,-0.0118,-0.0097,-0.0094,-0.0092,-0.0059,-0.0056,-0.0031,-0.0038,-0.0058,-0.0037,-0.0037,0.0001,0.0005,0.0013,0.0043,0.0046,0.0039,0.0041,0.0042,0.0042,0,0,0,0,0,0,0,-0.0123,-0.012,-0.0097,-0.0096,-0.0093,-0.0076,-0.0072,-0.0051,-0.003,-0.0056,-0.0054,-0.0049,0.0002,0.0011,0.0015,0.0047,0.0039,0.0041,0.0043,0.0044,0.0088,0.0088,0,0,0,0,0,0,-0.013,-0.0122,-0.0098,-0.0095,-0.0106,-0.0076,-0.0072,-0.007,-0.0031,-0.0025,-0.005,-0.0048,0.0007,0.0012,0.0017,0.0022,0.0042,0.0044,0.0045,0.0089,0.0088,0.0088,0,0,0,0,0,0,-0.0131,-0.0129,-0.01,-0.0107,-0.0103,-0.0076,-0.0074,-0.0069,-0.0063,-0.0026,-0.002,-0.0048,0.0007,0.0014,0.0033,0.0025,0.0045,0.0047,0.0089,0.0089,0.0088,0.0035,0,0,0,0,0,0,-0.0133,-0.013,-0.0135,-0.0108,-0.0102,-0.0094,-0.0074,-0.0069,-0.006,-0.0058,-0.0023,-0.0016,0.0008,0.0029,0.0035,0.0028,0.0049,0.0089,0.0089,0.0088,0.0037,0.0033,0.0029,0,0,0,0,0,-0.0134,-0.0141,-0.0135,-0.0132,-0.0109,-0.0095,-0.0091,-0.007,-0.0061,-0.0062,-0.0037,-0.0018,0.0031,0.0031,0.0038,0.0031,0.0089,0.0089,0.0088,0.0039,0.0034,0.0029,0,0,0,0,0,0,-0.0157,-0.0138,-0.0131,-0.0132,-0.0118,-0.009,-0.0091,-0.0075,-0.0057,-0.0056,-0.002,-0.0011,0.0001,0.0025,0.0023,0.0044,0.0063,0.0064,0.0023,0.0018,0.0015,0.0007,0.0051,0,0,0,0,0,-0.0165,-0.0168,-0.0145,-0.0148,-0.0143,-0.0119,-0.0112,-0.0098,-0.0077,-0.0068,-0.0043,-0.0016,0.0005,0.0018,0.004,0.0051,0.008,0.0052,0.0048,0.0044,0.0043,0.0083,0.0083,0.0087,0.0087,0.0087,0,0,-0.0175,-0.0166,-0.0168,-0.0154,-0.0142,-0.0142,-0.0114,-0.0109,-0.0107,-0.0064,-0.0056,-0.003,0.0005,0.0017,0.0025,0.0035,0.0057,0.0044,0.0041,0.0042,0.0082,0.0082,0.0082,0.0086,0.0086,0.0086,0,0,-0.0201,-0.019,-0.0203,-0.0194,-0.0181,-0.0165,-0.0166,-0.0141,-0.0129,-0.0118,-0.0087,-0.0065,-0.0033,-0.0009,0.0008,-0.0003,0.0034,0.0003,-0.0021,0.0017,0.0017,0.0017,0.0045,0.0049,0.0002,0.0002,0.0002,0,-0.0216,-0.0227,-0.0204,-0.0213,-0.0211,-0.0178,-0.0191,-0.0173,-0.0145,-0.0136,-0.0124,-0.0073,-0.0046,-0.0024,-0.0028,-0.0013,0.0014,-0.0009,0.0011,0.0012,0.0014,0.0043,0.0047,-0.0001,-0.0,-0.0,0.0,0,-0.0246,-0.0258,-0.0265,-0.0266,-0.026,-0.0265,-0.0239,-0.0231,-0.0212,-0.0189,-0.0165,-0.0123,-0.0092,-0.008,-0.0057,-0.0036,-0.0019,-0.0,0.0021,0.001,0.0041,0.0047,-0.0005,-0.0004,-0.0003,-0.0002,0,0,-0.0274,-0.0286,-0.029,-0.0306,-0.029,-0.0291,-0.0286,-0.0272,-0.0271,-0.0234,-0.0225,-0.0183,-0.0153,-0.0132,-0.0097,-0.0062,-0.0033,-0.0031,-0.0027,-0.0007,0.0047,0.0048,0.0055,-0.0008,-0.0007,-0.0006,0.0062,0,-0.0308,-0.0345,-0.0336,-0.0369,-0.0384,-0.0356,-0.0356,-0.0336,-0.031,-0.029,-0.0235,-0.0213,-0.0174,-0.0162,-0.012,-0.0051,-0.0019,-0.0053,0.0059,0.0062,0.0061,0.0061,-0.0004,0.0067,0.0068,0.0069,0.007,0,-0.0339,-0.0362,-0.0404,-0.0427,-0.043,-0.0443,-0.0438,-0.0433,-0.0389,-0.0367,-0.0325,-0.0276,-0.0219,-0.0187,-0.0075,-0.0097,-0.0034,0.0021,0.0026,0.005,0.0073,0.0084,0.008,0.008,0.0079,0.0078,0.0077,0,-0.0373,-0.0409,-0.0449,-0.0455,-0.047,-0.0486,-0.049,-0.0461,-0.0458,-0.0415,-0.0402,-0.0322,-0.0283,-0.0189,-0.0072,-0.0072,0.0056,0.007,0.0129,0.013,0.0132,0.0131,0.0143,0.0143,0.0143,0.0142,0.0142,0,-0.0406,-0.044,-0.0474,-0.0497,-0.0548,-0.0533,-0.0568,-0.0556,-0.0529,-0.0524,-0.0447,-0.0419,-0.028,-0.0186,-0.0083,0.0042,0.0049,0.0125,0.0149,0.0107,0.0102,0.0136,0.0134,0.0145,0.0144,0.0144,0.0143,0,-0.0433,-0.0454,-0.051,-0.0549,-0.0569,-0.0604,-0.0633,-0.0645,-0.0613,-0.0602,-0.0589,-0.0484,-0.0359,-0.0217,-0.0057,0.0021,0.0142,0.0182,0.0121,0.014,0.0191,0.0186,0.0251,0.0251,0.0252,0.0252,0.0253,0,-0.0448,-0.048,-0.0558,-0.0601,-0.0628,-0.0676,-0.0706,-0.0695,-0.0697,-0.0639,-0.0629,-0.0513,-0.0427,-0.0197,-0.0056,0.0139,0.0165,0.0219,0.021,0.0186,0.0204,0.0197,0.0192,0.0254,0.0254,0.0254,0.0254,0,-0.0479,-0.0513,-0.0559,-0.0649,-0.0706,-0.0759,-0.0794,-0.0798,-0.0766,-0.0743,-0.0648,-0.052,-0.0377,-0.0197,-0.0043,0.0094,0.0181,0.0225,0.0225,0.0216,0.0191,0.0206,0.0199,0.0256,0.0256,0.0255,0.0255,0,-0.0501,-0.0546,-0.0613,-0.0688,-0.0764,-0.0811,-0.083,-0.0813,-0.0804,-0.0722,-0.0694,-0.0528,-0.0431,-0.0221,-0.0081,0.0059,0.009,0.0125,0.013,0.013,0.0076,0.0025,0.006,0,0,0,0,0,-0.0513,-0.0565,-0.0643,-0.0725,-0.0798,-0.0834,-0.087,-0.0868,-0.0837,-0.0772,-0.0725,-0.0585,-0.0357,-0.026,-0.0118,-0.0084,0.01,0.0083,0.0139,0.0266,0.0264,0.0222,0,0,0,0,0,0,-0.0524,-0.0599,-0.0641,-0.0733,-0.0787,-0.0857,-0.0877,-0.0859,-0.081,-0.076,-0.0635,-0.056,-0.0339,-0.0431,-0.0117,-0.0076,-0.0024,0.0193,0.0196,0.0268,0.0266,0.0264,0.022,0,0,0,0,0]}]]